#timestamp,LO_Frequency,Hit 
1505505615.0,286047000.6,N
1505505615.9,286047000.6,N
1505505635.8,286046998.3,N
1505505655.6,286047002.4,N
1505505675.4,286047002.8,N
1505505695.3,286046998.1,N
1505505715.1,286046998.8,N
1505505716.0,286046998.8,N
1505505735.8,286047000.3,N
1505505755.7,286047001.0,N
1505505775.5,286047004.4,N
1505505795.3,286046998.7,N
1505505815.2,286047000.0,N
1505505835.9,286046998.5,N
1505505855.7,286046999.5,N
1505505875.5,286046999.3,N
1505505895.4,286047000.1,N
1505505915.2,286046999.8,N
1505505935.0,286047001.6,N
1505505935.9,286047001.6,N
1505505955.8,286047003.9,N
1505505975.6,286047004.3,N
1505505995.4,286046999.0,N
1505506015.3,286046997.8,N
1505506035.1,286046996.5,N
1505506036.0,286046996.5,N
1505506055.8,286046998.8,N
1505506075.7,286047001.4,N
1505506095.5,286047001.5,N
1505506115.3,286046998.9,N
1505506135.2,286046998.4,N
1505506155.9,286047000.4,N
1505506175.7,286047002.7,N
1505506195.5,286047000.5,N
1505506215.4,286047001.5,N
1505506235.2,286047000.6,N
1505506255.0,286046998.3,N
1505506255.9,286046998.3,N
1505506275.8,286047001.2,N
1505506295.6,286046998.4,N
1505506315.4,286047001.2,N
1505506335.3,286047000.4,N
1505506355.1,286047000.7,N
1505506375.8,286047004.1,N
1505506395.7,286047001.6,N
1505506415.5,286046999.9,N
1505506435.3,286047002.1,N
1505506455.2,286047003.6,N
1505506475.9,286047003.0,N
1505506495.7,286047003.2,N
1505506515.5,286047003.9,N
1505506535.4,286047002.6,N
1505506555.2,286047000.8,N
1505506575.0,286047001.4,N
1505506575.9,286047001.4,N
1505506595.8,286047000.6,N
1505506615.6,286046998.5,N
1505506635.4,286046998.4,N
1505506655.3,286047000.1,N
1505506675.1,286047000.4,N
1505506695.8,286047000.5,N
1505506715.7,286047004.3,N
1505506735.5,286047004.4,N
1505506755.3,286047000.3,N
1505506775.2,286047001.2,N
1505506795.9,286046998.2,N
1505506815.7,286047001.0,N
1505506835.6,286047000.8,N
1505506855.4,286047003.6,N
1505506875.2,286047000.2,N
1505506895.0,286047001.1,N
1505506896.0,286047001.1,N
1505506915.8,286047000.5,N
1505506935.6,286047001.0,N
1505506955.4,286046999.6,N
1505506975.3,286047001.4,N
1505506995.1,286047000.1,N
1505507015.8,286047000.6,N
1505507035.7,286047002.6,N
1505507055.5,286047003.4,N
1505507075.3,286047004.2,N
1505507095.2,286047001.9,N
1505507115.9,286047004.3,N
1505507135.7,286047003.3,N
1505507155.6,286047004.6,N
1505507175.4,286047004.6,N
1505507195.2,286047007.5,P
1505507215.1,286047001.8,N
1505507216.0,286047001.8,N
1505507235.8,286047000.8,N
1505507255.6,286046999.8,N
1505507275.5,286047001.2,N
1505507295.3,286047000.5,N
1505507315.1,286047002.1,N
1505507335.9,286047001.6,N
1505507355.7,286047002.9,N
1505507375.5,286047005.2,N
1505507395.3,286047003.4,N
1505507415.2,286047006.3,P
1505507435.0,286047005.2,N
1505507435.9,286047005.2,P
1505507455.8,286047003.1,N
1505507475.6,286047004.1,N
1505507495.4,286047000.3,N
1505507515.2,286047001.9,N
1505507535.1,286047001.3,N
1505507536.0,286047001.3,N
1505507555.8,286047005.6,N
1505507575.6,286047002.6,N
1505507595.5,286047005.5,N
1505507615.3,286047005.8,P
1505507635.1,286047002.1,N
1505507655.9,286047003.8,N
1505507675.7,286047002.8,N
1505507695.5,286047002.8,N
1505507715.4,286047001.2,N
1505507735.2,286047000.9,N
1505507755.0,286046998.3,N
1505507755.9,286046998.3,N
1505507775.8,286046998.6,N
1505507795.6,286047002.4,N
1505507815.4,286047003.5,N
1505507835.3,286047002.0,N
1505507855.1,286047004.0,N
1505507856.0,286047004.0,N
1505507875.8,286047000.4,N
1505507895.7,286047003.7,N
1505507915.5,286047001.5,N
1505507935.3,286047002.2,N
1505507955.1,286047004.7,N
1505507975.9,286047004.9,N
1505507995.7,286047003.7,N
1505508015.5,286047002.2,N
1505508035.4,286047001.7,N
1505508055.2,286047003.8,N
1505508075.0,286047001.5,N
1505508075.9,286047001.5,N
1505508095.8,286047002.3,N
1505508115.6,286047002.4,N
1505508135.4,286047003.8,N
1505508155.3,286047003.4,N
1505508175.1,286047008.8,P
1505508195.8,286047005.1,N
1505508215.7,286047003.1,N
1505508235.5,286047004.9,N
1505508255.3,286047004.8,N
1505508275.2,286047002.4,N
1505508295.9,286047001.6,N
1505508315.7,286047007.5,P
1505508335.6,286046998.4,N
1505508355.4,286046997.6,N
1505508375.2,286046996.5,N
1505508395.1,286046996.6,N
1505508396.0,286046996.6,N
1505508415.8,286046996.6,N
1505508435.6,286046996.7,N
1505508455.5,286046997.0,N
1505508475.3,286046996.6,N
1505508495.1,286046996.6,N
1505508515.8,286046997.8,N
1505508535.7,286046995.8,N
1505508555.5,286046997.8,N
1505508575.3,286046999.5,N
1505508595.2,286046997.4,N
1505508615.0,286046997.4,N
1505508615.9,286046997.4,N
1505508635.7,286047001.0,N
1505508655.6,286047000.4,N
1505508675.4,286046998.4,N
1505508695.2,286046998.1,N
1505508715.1,286047001.1,N
1505508716.0,286047001.1,N
1505508735.8,286047002.8,N
1505508755.6,286047002.3,N
1505508775.5,286047003.2,N
1505508795.3,286047001.6,N
1505508815.1,286047000.5,N
1505508835.9,286047004.3,N
1505508855.7,286047005.2,N
1505508875.5,286047002.9,N
1505508895.3,286047003.9,N
1505508915.2,286047001.8,N
1505508935.0,286047001.6,N
1505508935.9,286047001.6,N
1505508955.7,286047003.7,N
1505508975.6,286047003.3,N
1505508995.4,286047003.6,N
1505509015.2,286047005.0,N
1505509035.1,286047006.8,N
1505509036.0,286047006.8,N
1505509055.8,286047004.9,N
1505509075.6,286047005.7,N
1505509095.5,286047003.2,N
1505509115.3,286047007.4,N
1505509135.1,286047005.7,N
1505509155.9,286047005.2,N
1505509175.7,286047002.9,N
1505509195.5,286047003.1,N
